Wrangell, AK

5:31 PM AKDT on October 20, 2017 (GMT -0800)
Wrangell

Weather History for PAWG - January, 2012

Change the Weather History Date:

Saturday, January 28, 2012

  Actual Average Record
Temperature  
Mean Temperature 32 °F -  
Max Temperature 35 °F 34 °F 47 °F (1992)
Min Temperature 30 °F 24 °F 5 °F (1969)
Degree Days  
Heating Degree Days 32    
Moisture  
Dew Point 30 °F    
Average Humidity 88    
Maximum Humidity 93    
Minimum Humidity 75    
Precipitation  
Precipitation 0.00 in - - ()
Sea Level Pressure  
Sea Level Pressure 29.62 in    
Wind  
Wind Speed 13 mph (East)    
Max Wind Speed 15 mph    
Max Gust Speed 20 mph    
Visibility 5 miles    
Events Snow    
Averages and records for this station are not official NWS values.
T = Trace of Precipitation, MM = Missing Value Source: NWS Daily Summary

Daily Weather History Graph

Daily Weather History Graph

Search for Another Location

Airport or City:

Trip Planner

Search our weather history database for the weather conditions in past years. The results will help you decide how hot, cold, wet, or windy it might be!

Date:

Astronomy

Jan. 28, 2012 Rise Set
Actual Time 7:54 AM AKST 4:11 PM AKST
Civil Twilight 7:11 AM AKST 4:53 PM AKST
Nautical Twilight 6:25 AM AKST 5:40 PM AKST
Astronomical Twilight 5:41 AM AKST 6:24 PM AKST
Moon 9:02 AM AKST (1/28) 11:31 PM AKST (1/28)
Length of Visible Light 9h 42m
Length of Day
8h 16m
Waxing Crescent, 29% of the Moon is Illuminated
Jan 28
Waxing Crescent
Jan 30
First Quarter
Feb 7
Full
Feb 14
Last Quarter
Feb 21
New

Hourly Weather History & Observations

Time (AKST) Temp. Windchill Dew Point Humidity Pressure Visibility Wind Dir Wind Speed Gust Speed Precip Events Conditions
12:16 AM 30.2 °F 19.8 °F 26.6 °F 86% 30.10 in 8.0 mi East 13.8 mph - N/A   Overcast
12:36 AM 30.2 °F 20.8 °F 26.6 °F 86% 30.09 in 8.0 mi East 11.5 mph - N/A   Overcast
12:56 AM 30.2 °F 20.2 °F 26.6 °F 86% 30.07 in 7.0 mi East 12.7 mph 19.6 mph N/A   Overcast
1:16 AM 30.2 °F 19.8 °F 26.6 °F 86% 30.05 in 8.0 mi East 13.8 mph - N/A   Overcast
1:36 AM 32.0 °F 22.5 °F 28.4 °F 87% 30.03 in 10.0 mi East 12.7 mph - N/A   Overcast
1:56 AM 32.0 °F 22.1 °F 26.6 °F 80% 30.01 in 10.0 mi East 13.8 mph - N/A   Overcast
2:16 AM 32.0 °F 22.1 °F 26.6 °F 80% 29.99 in 10.0 mi East 13.8 mph - N/A   Overcast
2:36 AM 32.0 °F 21.6 °F 26.6 °F 80% 29.97 in 10.0 mi East 15.0 mph - N/A   Overcast
2:56 AM 32.0 °F 21.6 °F 28.4 °F 87% 29.96 in 10.0 mi East 15.0 mph - N/A   Overcast
3:16 AM 32.0 °F 22.1 °F 28.4 °F 87% 29.94 in 10.0 mi East 13.8 mph - N/A   Overcast
3:36 AM 33.8 °F 24.3 °F 26.6 °F 75% 29.92 in 10.0 mi East 13.8 mph - N/A   Overcast
3:56 AM 32.0 °F 22.1 °F 28.4 °F 87% 29.91 in 8.0 mi East 13.8 mph - N/A   Overcast
4:16 AM 32.0 °F 22.5 °F 28.4 °F 87% 29.89 in 4.0 mi East 12.7 mph - N/A   Overcast
4:36 AM 32.0 °F 22.5 °F 28.4 °F 87% 29.86 in 5.0 mi East 12.7 mph - N/A   Overcast
4:56 AM 32.0 °F 22.1 °F 28.4 °F 87% 29.84 in 2.5 mi East 13.8 mph 18.4 mph N/A   Overcast
5:16 AM 32.0 °F 23.0 °F 28.4 °F 87% 29.81 in 3.0 mi East 11.5 mph - N/A   Overcast
5:36 AM 32.0 °F 23.6 °F 28.4 °F 87% 29.79 in 4.0 mi East 10.4 mph - N/A   Overcast
5:56 AM 32.0 °F 21.6 °F 28.4 °F 87% 29.76 in 5.0 mi East 15.0 mph - N/A   Overcast
6:16 AM 32.0 °F 22.5 °F 28.4 °F 87% 29.75 in 5.0 mi ESE 12.7 mph - N/A   Overcast
6:36 AM 32.0 °F 22.5 °F 28.4 °F 87% 29.73 in 5.0 mi ENE 12.7 mph - N/A   Overcast
6:56 AM 32.0 °F 23.0 °F 28.4 °F 87% 29.70 in 4.0 mi East 11.5 mph - N/A   Overcast
7:16 AM 32.0 °F 23.6 °F 28.4 °F 87% 29.68 in 4.0 mi East 10.4 mph - N/A   Overcast
7:36 AM 32.0 °F 24.2 °F 30.2 °F 93% 29.65 in 4.0 mi East 9.2 mph - N/A   Overcast
7:56 AM 32.0 °F 23.0 °F 30.2 °F 93% 29.64 in 1.0 mi East 11.5 mph - N/A   Overcast
8:16 AM 32.0 °F 22.5 °F 30.2 °F 93% 29.62 in 1.0 mi East 12.7 mph - N/A   Overcast
8:36 AM 33.8 °F 24.3 °F 30.2 °F 87% 29.60 in 1.0 mi East 13.8 mph - N/A   Overcast
8:56 AM 33.8 °F 25.3 °F 30.2 °F 87% 29.58 in 1.2 mi East 11.5 mph - N/A   Overcast
9:15 AM 33.8 °F 24.3 °F 30.2 °F 87% 29.57 in 2.0 mi ENE 13.8 mph - N/A Snow Light Snow
9:16 AM 33.8 °F 24.3 °F 30.2 °F 87% 29.57 in 2.0 mi East 13.8 mph - N/A   Overcast
9:36 AM 33.8 °F 23.9 °F 30.2 °F 87% 29.54 in 4.0 mi East 15.0 mph - N/A   Overcast
9:56 AM 33.8 °F 27.0 °F 30.2 °F 87% 29.55 in 4.0 mi East 8.1 mph - N/A   Overcast
10:16 AM 33.8 °F 25.8 °F 32.0 °F 93% 29.53 in 4.0 mi East 10.4 mph - N/A   Overcast
10:36 AM 35.6 °F 27.5 °F 32.0 °F 87% 29.51 in 4.0 mi East 11.5 mph - N/A   Overcast
10:56 AM 35.6 °F 27.1 °F 32.0 °F 87% 29.50 in 4.0 mi East 12.7 mph 17.3 mph N/A   Overcast
11:16 AM 33.8 °F 24.3 °F 30.2 °F 87% 29.48 in 4.0 mi East 13.8 mph - N/A   Overcast
11:36 AM 35.6 °F 27.1 °F 32.0 °F 87% 29.48 in 3.0 mi East 12.7 mph - N/A   Overcast
11:56 AM 33.8 °F 24.8 °F 30.2 °F 87% 29.46 in 1.0 mi East 12.7 mph - N/A   Overcast
12:16 PM 33.8 °F 24.8 °F 30.2 °F 87% 29.45 in 1.0 mi East 12.7 mph 17.3 mph N/A   Overcast
12:36 PM 33.8 °F 24.3 °F 32.0 °F 93% 29.44 in 1.0 mi East 13.8 mph - N/A   Overcast
12:56 PM 33.8 °F 24.8 °F 32.0 °F 93% 29.42 in 1.0 mi East 12.7 mph - N/A   Overcast
1:16 PM 33.8 °F 25.3 °F 32.0 °F 93% 29.42 in 1.0 mi East 11.5 mph - N/A   Overcast
1:36 PM 35.6 °F 27.5 °F 32.0 °F 87% 29.41 in 1.0 mi East 11.5 mph - N/A   Overcast
1:56 PM 35.6 °F 26.2 °F 32.0 °F 87% 29.39 in 4.0 mi East 15.0 mph - N/A   Overcast
2:16 PM 35.6 °F 26.6 °F 33.8 °F 93% 29.37 in 4.0 mi East 13.8 mph - N/A   Overcast
2:36 PM 35.6 °F 27.1 °F 33.8 °F 93% 29.36 in 4.0 mi East 12.7 mph - N/A   Overcast
2:56 PM 35.6 °F 28.6 °F 33.8 °F 93% 29.35 in 10.0 mi East 9.2 mph - N/A   Overcast
3:16 PM 35.6 °F 28.6 °F 32.0 °F 87% 29.34 in 10.0 mi East 9.2 mph - N/A   Overcast
3:36 PM 35.6 °F 28.6 °F 32.0 °F 87% 29.33 in 10.0 mi East 9.2 mph - N/A   Overcast
3:56 PM 35.6 °F 28.6 °F 32.0 °F 87% 29.32 in 10.0 mi East 9.2 mph - N/A   Overcast
4:16 PM 35.6 °F 27.5 °F 32.0 °F 87% 29.31 in 10.0 mi East 11.5 mph - N/A   Overcast
4:36 PM 35.6 °F 29.2 °F 32.0 °F 87% 29.31 in 10.0 mi ESE 8.1 mph - N/A   Overcast
4:56 PM 35.6 °F 29.2 °F 33.8 °F 93% 29.30 in 7.0 mi East 8.1 mph - N/A   Overcast
5:16 PM 35.6 °F 28.0 °F 32.0 °F 87% 29.29 in 7.0 mi East 10.4 mph - N/A   Overcast
5:36 PM 35.6 °F 29.2 °F 33.8 °F 93% 29.28 in 7.0 mi East 8.1 mph - N/A   Overcast
5:56 PM 35.6 °F 29.2 °F 32.0 °F 87% 29.27 in 5.0 mi ESE 8.1 mph - N/A   Overcast
6:16 PM 35.6 °F 28.6 °F 33.8 °F 93% 29.27 in 5.0 mi East 9.2 mph - N/A   Overcast
6:36 PM 35.6 °F 28.6 °F 32.0 °F 87% 29.26 in 5.0 mi ESE 9.2 mph - N/A   Overcast
6:56 PM 35.6 °F 28.6 °F 33.8 °F 93% 29.25 in 5.0 mi East 9.2 mph - N/A   Overcast
7:16 PM 35.6 °F 28.6 °F 32.0 °F 87% 29.25 in 5.0 mi ESE 9.2 mph - N/A   Overcast
7:36 PM 35.6 °F 29.2 °F 33.8 °F 93% 29.24 in 5.0 mi East 8.1 mph - N/A   Overcast
7:56 PM 35.6 °F 28.0 °F 32.0 °F 87% 29.24 in 5.0 mi ESE 10.4 mph - N/A   Overcast
8:16 PM 35.6 °F 27.1 °F 32.0 °F 87% 29.23 in 5.0 mi ESE 12.7 mph - N/A   Overcast
8:36 PM 35.6 °F 27.1 °F 32.0 °F 87% 29.22 in 5.0 mi ESE 12.7 mph - N/A   Overcast
8:56 PM 35.6 °F 29.2 °F 32.0 °F 87% 29.23 in 7.0 mi ESE 8.1 mph - N/A   Overcast
9:16 PM 35.6 °F 29.2 °F 32.0 °F 87% 29.23 in 7.0 mi East 8.1 mph - N/A   Overcast
9:36 PM 35.6 °F 29.2 °F 33.8 °F 93% 29.22 in 7.0 mi East 8.1 mph - N/A   Overcast
9:56 PM 35.6 °F 31.7 °F 33.8 °F 93% 29.22 in 8.0 mi East 4.6 mph - N/A   Overcast
10:16 PM 35.6 °F 29.9 °F 32.0 °F 87% 29.22 in 8.0 mi East 6.9 mph - N/A   Overcast
10:36 PM 35.6 °F 27.5 °F 32.0 °F 87% 29.22 in 8.0 mi East 11.5 mph - N/A   Overcast
10:56 PM 35.6 °F 27.1 °F 33.8 °F 93% 29.22 in 8.0 mi East 12.7 mph - N/A   Overcast
11:16 PM 35.6 °F 31.7 °F 30.2 °F 81% 29.22 in 10.0 mi North 4.6 mph - N/A   Overcast
11:36 PM 35.6 °F 28.0 °F 33.8 °F 93% 29.22 in 10.0 mi East 10.4 mph - N/A   Overcast
11:56 PM 35.6 °F 28.0 °F 33.8 °F 93% 29.21 in 10.0 mi East 10.4 mph - N/A   Overcast